New Bedford, MA

2:29 PM EDT on April 22, 2018 (GMT -0400)
New Bedford Regional

Weather History for KEWB - January, 2014

Change the Weather History Date:

Friday, January 24, 2014

  Actual Average Record
Temperature  
Mean Temperature 12 °F -  
Max Temperature 17 °F 41 °F 66 °F (1967)
Min Temperature 6 °F 26 °F 0 °F (2011)
Degree Days  
Heating Degree Days 54    
Moisture  
Dew Point -4 °F    
Average Humidity 51    
Maximum Humidity 73    
Minimum Humidity 36    
Precipitation  
Precipitation 0.00 in - - ()
Sea Level Pressure  
Sea Level Pressure 30.20 in    
Wind  
Wind Speed 10 mph (West)    
Max Wind Speed 15 mph    
Max Gust Speed 24 mph    
Visibility 10 miles    
Events      
Averages and records for this station are not official NWS values.
T = Trace of Precipitation, MM = Missing Value Source: NWS Daily Summary

Daily Weather History Graph

Daily Weather History Graph

Search for Another Location

Airport or City:

Astronomy

Jan. 24, 2014 Rise Set
Actual Time 7:03 AM EST 4:49 PM EST
Civil Twilight 6:33 AM EST 5:19 PM EST
Nautical Twilight 5:59 AM EST 5:53 PM EST
Astronomical Twilight 5:26 AM EST 6:26 PM EST
Moon 12:25 AM EST (1/24) 11:06 AM EST (1/24)
Length of Visible Light 10h 46m
Length of Day
9h 46m
Last Quarter, 45% of the Moon is Illuminated
Jan 24
Last Quarter
Jan 30
New
Feb 6
First Quarter
Feb 14
Full
Feb 22
Last Quarter

Hourly Weather History & Observations

Time (EST) Temp. Windchill Dew Point Humidity Pressure Visibility Wind Dir Wind Speed Gust Speed Precip Events Conditions
12:53 AM 12.0 °F -2.7 °F -2.0 °F 53% 30.18 in 10.0 mi West 12.7 mph - N/A   Clear
1:53 AM 10.9 °F -4.7 °F -2.0 °F 56% 30.18 in 10.0 mi West 13.8 mph 20.7 mph N/A   Clear
2:53 AM 10.0 °F -5.2 °F -2.0 °F 58% 30.19 in 10.0 mi West 12.7 mph - N/A   Clear
3:53 AM 10.0 °F -5.9 °F -2.9 °F 56% 30.19 in 10.0 mi West 13.8 mph 24.2 mph N/A   Clear
4:53 AM 9.0 °F -6.6 °F -4.0 °F 56% 30.19 in 10.0 mi West 12.7 mph - N/A   Clear
5:53 AM 8.1 °F -3.2 °F -5.1 °F 55% 30.22 in 10.0 mi West 6.9 mph - N/A   Clear
6:53 AM 7.0 °F -4.5 °F -6.0 °F 55% 30.24 in 10.0 mi West 6.9 mph - N/A   Clear
7:53 AM 8.1 °F -7.0 °F -7.1 °F 50% 30.25 in 10.0 mi WNW 11.5 mph - N/A   Clear
8:53 AM 9.0 °F -5.9 °F -7.1 °F 48% 30.27 in 10.0 mi WNW 11.5 mph 23.0 mph N/A   Clear
9:53 AM 10.9 °F -4.7 °F -7.1 °F 44% 30.27 in 10.0 mi WNW 13.8 mph 20.7 mph N/A   Clear
10:53 AM 12.9 °F -0.9 °F -6.0 °F 43% 30.25 in 10.0 mi WNW 11.5 mph - N/A   Clear
11:53 AM 15.1 °F 1.1 °F -7.1 °F 37% 30.22 in 10.0 mi NW 12.7 mph 23.0 mph N/A   Clear
12:53 PM 16.0 °F 2.9 °F -7.1 °F 36% 30.20 in 10.0 mi West 11.5 mph 19.6 mph N/A   Clear
1:53 PM 17.1 °F 3.0 °F -6.0 °F 36% 30.19 in 10.0 mi WNW 13.8 mph 18.4 mph N/A   Clear
2:53 PM 17.1 °F 2.5 °F -4.0 °F 39% 30.20 in 10.0 mi West 15.0 mph 23.0 mph N/A   Clear
3:53 PM 17.1 °F 3.6 °F -5.1 °F 37% 30.19 in 10.0 mi West 12.7 mph - N/A   Clear
4:53 PM 15.1 °F 6.4 °F -6.0 °F 39% 30.18 in 10.0 mi WSW 5.8 mph - N/A   Clear
5:53 PM 12.0 °F 5.9 °F -6.0 °F 44% 30.20 in 10.0 mi SW 3.5 mph - N/A   Clear
6:53 PM 8.1 °F - -4.0 °F 58% 30.19 in 10.0 mi Calm Calm - N/A   Clear
7:53 PM 6.1 °F - -4.0 °F 63% 30.20 in 10.0 mi Calm Calm - N/A   Clear
8:53 PM 9.0 °F 2.4 °F -2.0 °F 61% 30.17 in 10.0 mi WSW 3.5 mph - N/A   Clear
9:53 PM 10.0 °F 3.6 °F -0.0 °F 64% 30.16 in 10.0 mi SSE 3.5 mph - N/A   Scattered Clouds
10:53 PM 10.9 °F - 1.0 °F 64% 30.12 in 10.0 mi Calm Calm - N/A   Scattered Clouds
11:53 PM 8.1 °F 1.4 °F 1.0 °F 73% 30.10 in 10.0 mi SSW 3.5 mph - N/A   Overcast